Location: ??????????
(42.1626°N, 44.1160°E)
Time: 10:09:54
(UTC+00:00)

FALCON 9 DEB - Pass Details

Date: 03 March 2021
Orbit: 423 x 435 km, 53.0° (Epoch: 20 April)

Event Time Altitude Azimuth Distance (km) Brightness Sun altitude
Rises 16:45:44 0° 308° (NW) 2,403 8.0 -21.1°
Reaches altitude 10° 16:47:52 10° 311° (NW) 1,530 6.7 -21.5°
Enters shadow 16:50:36 50° 338° (NNW) 552 3.7 -21.9°
